Fremont, NE

3:21 PM CDT on July 27, 2016 (GMT -0500)
Fremont Municipal

Weather History for KFET - January, 2014

Change the Weather History Date:

Wednesday, January 22, 2014

  Actual Average Record
Temperature  
Mean Temperature 16 °F -  
Max Temperature 31 °F 37 °F 56 °F (1981)
Min Temperature -1 °F 16 °F -12 °F (1966)
Degree Days  
Heating Degree Days 50    
Moisture  
Dew Point 8 °F    
Average Humidity 68    
Maximum Humidity 90    
Minimum Humidity 44    
Precipitation  
Precipitation 0.00 in - - ()
Sea Level Pressure  
Sea Level Pressure 30.25 in    
Wind  
Wind Speed 13 mph (NW)    
Max Wind Speed 25 mph    
Max Gust Speed 32 mph    
Visibility 10 miles    
Events Snow    
Averages and records for this station are not official NWS values.
T = Trace of Precipitation, MM = Missing Value Source: NWS Daily Summary

Daily Weather History Graph

Daily Weather History Graph

Search for Another Location

Airport or City:

Trip Planner

Search our weather history database for the weather conditions in past years. The results will help you decide how hot, cold, wet, or windy it might be!

Date:

Astronomy

Jan. 22, 2014 Rise Set
Actual Time 7:46 AM CST 5:29 PM CST
Civil Twilight 7:16 AM CST 5:59 PM CST
Nautical Twilight 6:42 AM CST 6:33 PM CST
Astronomical Twilight 6:09 AM CST 7:06 PM CST
Moon No Moon Rise 10:42 AM CST (1/22)
Length of Visible Light 10h 43m
Length of Day
9h 43m
Waning Gibbous, 65% of the Moon is Illuminated
Jan 22
Waning Gibbous
Jan 23
Last Quarter
Jan 30
New
Feb 6
First Quarter
Feb 14
Full

Hourly Weather History & Observations

Time (CST) Temp. Windchill Dew Point Humidity Pressure Visibility Wind Dir Wind Speed Gust Speed Precip Events Conditions
12:15 AM 28.4 °F 17.5 °F 21.2 °F 74% 30.06 in 10.0 mi NNW 13.8 mph - N/A   Overcast
12:35 AM 27.9 °F 18.4 °F 21.2 °F 76% 30.06 in 10.0 mi NNW 10.4 mph - N/A   Overcast
12:55 AM 27.5 °F 17.4 °F 21.2 °F 77% 30.06 in 10.0 mi NNW 11.5 mph - N/A   Overcast
1:15 AM 27.5 °F 18.6 °F 21.2 °F 77% 30.06 in 10.0 mi NW 9.2 mph - N/A   Overcast
1:35 AM 27.3 °F 19.1 °F 21.0 °F 77% 30.05 in 10.0 mi NW 8.1 mph - N/A   Overcast
1:55 AM 27.3 °F 17.7 °F 21.2 °F 78% 30.05 in 10.0 mi NW 10.4 mph - N/A   Overcast
2:15 AM 27.3 °F 18.4 °F 21.2 °F 78% 30.05 in 10.0 mi NW 9.2 mph - N/A   Overcast
2:35 AM 27.0 °F 16.7 °F 21.2 °F 79% 30.05 in 10.0 mi NW 11.5 mph - N/A   Overcast
2:55 AM 26.4 °F 16.0 °F 21.0 °F 80% 30.06 in 10.0 mi WNW 11.5 mph - N/A   Overcast
3:15 AM 26.2 °F 15.2 °F 20.5 °F 79% 30.06 in 10.0 mi NW 12.7 mph - N/A   Mostly Cloudy
3:55 AM 25.7 °F 14.0 °F 19.2 °F 76% 30.06 in 10.0 mi NW 13.8 mph 20.7 mph N/A   Scattered Clouds
4:15 AM 25.3 °F 12.2 °F 19.2 °F 78% 30.08 in 10.0 mi NW 17.3 mph 24.2 mph N/A   Scattered Clouds
4:35 AM 24.3 °F 11.2 °F 18.0 °F 77% 30.08 in 10.0 mi NNW 16.1 mph 20.7 mph N/A   Scattered Clouds
4:55 AM 23.0 °F 11.1 °F 17.4 °F 79% 30.09 in 10.0 mi NW 12.7 mph - N/A   Scattered Clouds
5:15 AM 23.0 °F 10.1 °F 17.1 °F 78% 30.10 in 10.0 mi NNW 15.0 mph 21.9 mph N/A   Mostly Cloudy
5:35 AM 21.2 °F 7.3 °F 15.8 °F 80% 30.11 in 10.0 mi NNW 16.1 mph 23.0 mph N/A   Scattered Clouds
5:55 AM 20.3 °F 10.6 °F 14.9 °F 80% 30.12 in 10.0 mi NNW 8.1 mph - N/A   Scattered Clouds
6:15 AM 19.4 °F 6.6 °F 14.5 °F 81% 30.13 in 10.0 mi NNW 12.7 mph 18.4 mph N/A   Scattered Clouds
6:35 AM 18.5 °F 5.5 °F 13.3 °F 80% 30.13 in 10.0 mi NNW 12.7 mph - N/A   Clear
6:55 AM 17.6 °F 6.4 °F 13.1 °F 83% 30.14 in 10.0 mi NNW 9.2 mph - N/A   Clear
7:15 AM 16.2 °F 6.5 °F 12.2 °F 84% 30.14 in 10.0 mi NNW 6.9 mph - N/A   Clear
7:35 AM 14.4 °F 5.5 °F 10.9 °F 86% 30.13 in 10.0 mi NW 5.8 mph - N/A   Clear
7:55 AM 12.0 °F 4.1 °F 9.5 °F 90% 30.13 in 10.0 mi West 4.6 mph - N/A   Clear
8:15 AM 14.4 °F 5.5 °F 11.8 °F 90% 30.12 in 10.0 mi West 5.8 mph - N/A   Clear
8:35 AM 16.9 °F 9.8 °F 13.6 °F 87% 30.11 in 10.0 mi WSW 4.6 mph - N/A   Clear
8:55 AM 19.2 °F 11.3 °F 14.9 °F 83% 30.12 in 10.0 mi West 5.8 mph - N/A   Clear
9:15 AM 21.4 °F 9.7 °F 16.2 °F 80% 30.13 in 10.0 mi West 11.5 mph - N/A   Scattered Clouds
9:35 AM 22.6 °F 9.2 °F 16.5 °F 77% 30.14 in 10.0 mi West 16.1 mph 23.0 mph N/A   Mostly Cloudy
9:55 AM 23.5 °F 9.4 °F 15.6 °F 72% 30.14 in 10.0 mi West 18.4 mph - N/A   Overcast
10:15 AM 23.7 °F 12.6 °F 15.1 °F 70% 30.16 in 10.0 mi WNW 11.5 mph - N/A   Overcast
10:35 AM 25.2 °F 17.3 °F 15.4 °F 67% 30.16 in 10.0 mi WNW 6.9 mph - N/A   Overcast
10:55 AM 26.2 °F 18.6 °F 15.4 °F 64% 30.16 in 10.0 mi West 6.9 mph - N/A   Overcast
11:15 AM 27.9 °F 16.8 °F 13.1 °F 54% 30.16 in 10.0 mi WNW 13.8 mph - N/A   Mostly Cloudy
11:35 AM 28.4 °F 17.5 °F 12.7 °F 52% 30.16 in 10.0 mi WNW 13.8 mph - N/A   Scattered Clouds
11:55 AM 29.8 °F 18.0 °F 15.3 °F 55% 30.15 in 10.0 mi NW 17.3 mph 20.7 mph N/A   Mostly Cloudy
12:15 PM 31.1 °F 18.0 °F 15.4 °F 52% 30.14 in 10.0 mi WNW 23.0 mph 27.6 mph N/A   Mostly Cloudy
12:35 PM 30.2 °F 16.2 °F 18.1 °F 61% 30.15 in 10.0 mi NW 25.3 mph 28.8 mph N/A   Mostly Cloudy
12:55 PM 28.4 °F 16.6 °F 21.0 °F 74% 30.16 in 4.0 mi NNW 16.1 mph 27.6 mph N/A Snow Light Snow
1:15 PM 23.4 °F 10.1 °F 18.5 °F 82% 30.18 in 3.0 mi North 16.1 mph 26.5 mph N/A Snow Light Snow
1:35 PM 25.2 °F 12.9 °F 16.5 °F 70% 30.19 in 10.0 mi NNW 15.0 mph 24.2 mph N/A   Mostly Cloudy
1:55 PM 25.2 °F 11.2 °F 13.8 °F 62% 30.20 in 10.0 mi NNW 19.6 mph 29.9 mph N/A   Mostly Cloudy
2:15 PM 26.1 °F 12.0 °F 11.1 °F 53% 30.21 in 10.0 mi NNW 20.7 mph 32.2 mph N/A   Mostly Cloudy
2:35 PM 24.1 °F 9.8 °F 11.3 °F 58% 30.22 in 10.0 mi NNW 19.6 mph 28.8 mph N/A   Overcast
2:55 PM 21.7 °F 6.3 °F 13.6 °F 71% 30.24 in 5.0 mi NNW 20.7 mph 29.9 mph N/A Snow Light Snow
3:15 PM 21.2 °F 6.4 °F 8.8 °F 59% 30.26 in 5.0 mi NNW 18.4 mph 31.1 mph N/A   Haze
3:35 PM 20.7 °F 6.1 °F 9.7 °F 63% 30.28 in 10.0 mi NNW 17.3 mph 28.8 mph N/A   Scattered Clouds
3:55 PM 18.5 °F 2.9 °F 4.3 °F 54% 30.30 in 10.0 mi NNW 18.4 mph 31.1 mph N/A   Scattered Clouds
4:15 PM 16.9 °F 0.3 °F 3.7 °F 56% 30.32 in 10.0 mi NNW 19.6 mph 29.9 mph N/A   Scattered Clouds
4:35 PM 14.2 °F -3.2 °F -4.4 °F 44% 30.34 in 10.0 mi NNW 19.6 mph 32.2 mph N/A   Scattered Clouds
4:55 PM 13.1 °F -2.0 °F -3.5 °F 48% 30.36 in 10.0 mi NNW 13.8 mph 26.5 mph N/A   Clear
5:15 PM 10.8 °F -6.2 °F -6.3 °F 46% 30.38 in 10.0 mi NNW 16.1 mph 32.2 mph N/A   Clear
5:35 PM 9.1 °F -8.8 °F -6.7 °F 49% 30.40 in 10.0 mi North 17.3 mph 25.3 mph N/A   Clear
5:55 PM 8.1 °F -5.3 °F -6.3 °F 52% 30.42 in 10.0 mi NNW 9.2 mph 24.2 mph N/A   Clear
6:15 PM 7.2 °F -8.1 °F -6.9 °F 53% 30.43 in 10.0 mi NNW 11.5 mph 17.3 mph N/A   Clear
6:35 PM 6.4 °F -9.8 °F -6.7 °F 55% 30.45 in 10.0 mi NNW 12.7 mph 18.4 mph N/A   Clear
6:55 PM 5.9 °F -14.1 °F -7.4 °F 54% 30.46 in 10.0 mi NNW 19.6 mph 25.3 mph N/A   Clear
7:15 PM 4.8 °F -12.5 °F -7.8 °F 56% 30.47 in 10.0 mi NNW 13.8 mph 21.9 mph N/A   Clear
7:35 PM 4.1 °F -14.7 °F -7.8 °F 58% 30.48 in 10.0 mi NNW 16.1 mph 24.2 mph N/A   Clear
7:55 PM 3.4 °F -13.6 °F -8.0 °F 59% 30.49 in 10.0 mi NNW 12.7 mph - N/A   Clear
8:15 PM 2.8 °F -17.0 °F -7.8 °F 61% 30.50 in 10.0 mi NNW 17.3 mph 24.2 mph N/A   Clear
8:35 PM 2.1 °F -17.3 °F -7.8 °F 63% 30.51 in 10.0 mi NNW 16.1 mph 20.7 mph N/A   Clear
8:55 PM 1.6 °F -16.7 °F -8.1 °F 64% 30.52 in 10.0 mi NNW 13.8 mph 21.9 mph N/A   Clear
9:15 PM 1.4 °F -17.6 °F -8.5 °F 63% 30.53 in 10.0 mi NNW 15.0 mph 23.0 mph N/A   Clear
9:35 PM 0.9 °F -17.6 °F -8.5 °F 65% 30.55 in 10.0 mi NNW 13.8 mph 20.7 mph N/A   Clear
9:55 PM 0.5 °F -16.5 °F -8.7 °F 65% 30.55 in 10.0 mi NNW 11.5 mph 18.4 mph N/A   Clear
10:15 PM 0.1 °F -16.0 °F -8.5 °F 67% 30.56 in 10.0 mi NNW 10.4 mph 18.4 mph N/A   Clear
10:35 PM -0.4 °F -16.7 °F -8.7 °F 68% 30.57 in 10.0 mi NNW 10.4 mph - N/A   Clear
10:55 PM -0.4 °F -17.6 °F -8.5 °F 69% 30.59 in 10.0 mi NNW 11.5 mph 18.4 mph N/A   Clear
11:15 PM -0.8 °F -18.9 °F -8.7 °F 69% 30.60 in 10.0 mi NW 12.7 mph 17.3 mph N/A   Clear
11:35 PM -0.9 °F -19.9 °F -8.5 °F 70% 30.60 in 10.0 mi NW 13.8 mph 18.4 mph N/A   Clear
11:55 PM -1.3 °F -18.7 °F -8.5 °F 72% 30.61 in 10.0 mi NNW 11.5 mph 17.3 mph N/A   Clear